Weatherford, Texas, United States (76085)
Lat: 32.76N, Lon: 97.8W
Wx Zone: TXZ117
Local Info
Past Weather Observations for Wednesday, March 25, 2015

NOTE: This archive is for the closest National Weather Service station to Weatherford. Information may differ from the station used for current weather conditions.

Click here for Long-term Archive

Time Weather Temperature Dewpoint Humidity Pressure Winds Precip Visibility
23:53
Mostly Cloudy
Thunder Storms
55°F / 13°C 48°F / 9°C 77% 29.95 in
(1014 mb)
NNW 27.6 mph
(NNW 44 kph)
0.06 in
(1.52 mm)
10SM
23:43
Mostly Cloudy
55°F / 13°C 48°F / 9°C 77% 29.98 in
(1015 mb)
NNW 20.7 mph
(NNW 33 kph)
0.06 in
(1.52 mm)
10SM
23:38
Mostly Cloudy
Thunder Storms
55°F / 13°C 48°F / 9°C 77% 29.98 in
(1015 mb)
NNW 23 mph
(NNW 37 kph)
0.06 in
(1.52 mm)
10SM
23:00
Mostly Cloudy
Thunder Storms
59°F / 15°C 52°F / 11°C 77% 29.89 in
(1012 mb)
NNW 28.8 mph
(NNW 46 kph)
0.00 in
(0.00 mm)
10SM
22:53
Overcast
Light Rain
61°F / 16°C 54°F / 12°C 77% 29.89 in
(1012 mb)
N 27.6 mph
(N 44 kph)
0.00 in
(0.00 mm)
10SM
22:50
Overcast
Light Rain
63°F / 17°C 55°F / 13°C 77% 29.86 in
(1011 mb)
N 26.5 mph
(N 43 kph)
0.00 in
(0.00 mm)
10SM
22:35
Mostly Cloudy
73°F / 23°C 59°F / 15°C 61% 29.83 in
(1010 mb)
NW 20.7 mph
(NW 33 kph)
- 10SM
21:53
Clear
72°F / 22°C 61°F / 16°C 69% 29.77 in
(1008 mb)
S 8.1 mph
(S 13 kph)
- 10SM
20:53
Clear
72°F / 22°C 59°F / 15°C 65% 29.74 in
(1007 mb)
SSE 17.3 mph
(SSE 28 kph)
- 10SM
19:53
Clear
73°F / 23°C 59°F / 15°C 61% 29.77 in
(1008 mb)
SSE 13.8 mph
(SSE 22 kph)
- 10SM
18:53
Clear
77°F / 25°C 55°F / 13°C 47% 29.74 in
(1007 mb)
SE 12.7 mph
(SE 20 kph)
- 10SM
17:53
Clear
81°F / 27°C 54°F / 12°C 39% 29.74 in
(1007 mb)
SE 17.3 mph
(SE 28 kph)
0.00 in
(0.00 mm)
10SM
17:03
Partly Cloudy
Light Rain
81°F / 27°C 55°F / 13°C 42% 29.74 in
(1007 mb)
SE 13.8 mph
(SE 22 kph)
0.00 in
(0.00 mm)
10SM
16:53
Clear
Thunder Storms
81°F / 27°C 54°F / 12°C 39% 29.77 in
(1008 mb)
S 10.4 mph
(S 17 kph)
- 10SM
16:48
Clear
Thunder Storms
81°F / 27°C 54°F / 12°C 39% 29.77 in
(1008 mb)
S 11.5 mph
(S 19 kph)
- 10SM
15:53
Clear
82°F / 28°C 54°F / 12°C 37% 29.77 in
(1008 mb)
SSE 16.1 mph
(SSE 26 kph)
-
14:53
Clear
N/A N/A N/A 29.77 in
(1008 mb)
SSE 23 mph
(SSE 37 kph)
- 10SM
13:53
Clear
84°F / 29°C 54°F / 12°C 35% 29.8 in
(1009 mb)
S 16.1 mph
(S 26 kph)
- 10SM
12:53
Clear
82°F / 28°C 57°F / 14°C 42% 29.83 in
(1010 mb)
S 17.3 mph
(S 28 kph)
- 10SM
11:53
Clear
79°F / 26°C 61°F / 16°C 54% 29.86 in
(1011 mb)
S 18.4 mph
(S 30 kph)
- 10SM
10:53
Clear
77°F / 25°C 63°F / 17°C 61% 29.89 in
(1012 mb)
S 13.8 mph
(S 22 kph)
- 10SM
09:53
Clear
73°F / 23°C 63°F / 17°C 69% 29.89 in
(1012 mb)
SSE 11.5 mph
(SSE 19 kph)
- 10SM
09:26
Partly Cloudy
68°F / 20°C 63°F / 17°C 83% 29.89 in
(1012 mb)
SSE 9.2 mph
(SSE 15 kph)
- 10SM
09:10
Mostly Cloudy
66°F / 19°C 63°F / 17°C 88% 29.89 in
(1012 mb)
SE 8.1 mph
(SE 13 kph)
- 10SM
08:53
Mostly Cloudy
Fog And Mist
64°F / 18°C 63°F / 17°C 94% 29.89 in
(1012 mb)
SE 10.4 mph
(SE 17 kph)
- 6SM
08:49
Mostly Cloudy
Fog And Mist
64°F / 18°C 61°F / 16°C 88% 29.89 in
(1012 mb)
SE 11.5 mph
(SE 19 kph)
- 5SM
08:06
Partly Cloudy
63°F / 17°C 61°F / 16°C 94% 29.89 in
(1012 mb)
SE 9.2 mph
(SE 15 kph)
- 9SM
07:53
Clear
63°F / 17°C 61°F / 16°C 94% 29.89 in
(1012 mb)
SSE 9.2 mph
(SSE 15 kph)
- 7SM
06:53
Clear
Fog And Mist
61°F / 16°C 59°F / 15°C 94% 29.89 in
(1012 mb)
SE 9.2 mph
(SE 15 kph)
- 4SM
05:53
Clear
61°F / 16°C 59°F / 15°C 94% 29.86 in
(1011 mb)
SE 10.4 mph
(SE 17 kph)
- 7SM
04:53
Clear
63°F / 17°C 61°F / 16°C 94% 29.86 in
(1011 mb)
SE 9.2 mph
(SE 15 kph)
- 10SM
03:53
Clear
63°F / 17°C 61°F / 16°C 94% 29.83 in
(1010 mb)
SE 9.2 mph
(SE 15 kph)
- 10SM
02:53
Clear
63°F / 17°C 61°F / 16°C 94% 29.86 in
(1011 mb)
SE 9.2 mph
(SE 15 kph)
- 10SM
01:53
Clear
63°F / 17°C 61°F / 16°C 94% 29.86 in
(1011 mb)
SE 9.2 mph
(SE 15 kph)
- 10SM
00:53
Clear
63°F / 17°C 61°F / 16°C 94% 29.86 in
(1011 mb)
SE 6.9 mph
(SE 11 kph)
- 10SM
Time Weather Temperature Dewpoint Humidity Pressure Winds Precip Visibility


Weather for websites

WeatherForYou.com, LLC is not responsible for any damages or problems caused by this service. Current weather conditions are obtained from the closest station including government and personal stations which may have varying degrees of accuracy. Weather forecasts are derived from the NOAA NDFD. Like all things, this site belongs to Jesus Christ... He just trusts me to maintain it. If you have any questions or comments email webmaster@weatherforyou.com

Copyright © 2015, WeatherForYou.com LLC. All rights reserved.